Regional Weather Roundup
Issued by NWS Midland/Odessa, TX

Skip options and go directly to product.
Home | Oldest Version | Previous Version | Current Version | All | Graphics & Text | Save Text | Print | Product List | Glossary On

Skip product version selection by date and time.   
695
ASUS44 KMAF 222310
RWRMAF
MIDLAND AREA WEATHER ROUNDUP
NATIONAL WEATHER SERVICE MIDLAND TX
600 PM CDT TUE JUL 22 2014

...IN SOUTHWEST TEXAS AND SOUTHEAST NEW MEXICO...

CITY           SKY/WX    TMP DP  RH WIND       PRES   REMARKS
ALPINE         PTSUNNY   89  56  32 SE9       30.21S
ANDREWS        NOT AVBL
ARTESIA        MOSUNNY   95  55  26 SE14      30.11S
BIG SPRING     CLOUDY   100  58  25 E12       30.09
CARLSBAD       MOSUNNY   99  52  20 SE15G23   30.07F
DRYDEN           N/A    101  60  25 E15G24    30.01S HX 101
FORT STOCKTON  MOSUNNY   96  59  29 E14       30.07F
GUAD PASS      MOSUNNY   87  53  31 NE22G29   30.26S
HOBBS          PTSUNNY   91  54  27 E7        30.15F
MARFA          PTSUNNY   88  59  37 SE13G18   30.20F
MIDLAND AIRPK  PTSUNNY   94  58  29 E5        30.10F
MIDLAND INTL   PTSUNNY   92  61  35 CALM      30.09F
ODESSA         MOSUNNY   94  48  20 E14       30.10S
PECOS          SUNNY     99  55  22 E13       30.03F
PRESIDIO       FAIR     102  53  19 NE14      29.97F HX 100
SEMINOLE       PTSUNNY   93  51  24 E10       30.14S
SNYDER         SUNNY     96  61  30 SE7       30.08F
WINK           MOSUNNY  101  55  21 E18       30.04F
$$
...OTHER STATIONS IN TEXAS...

CITY           SKY/WX    TMP DP  RH WIND       PRES   REMARKS
ABILENE        SUNNY     97  63  32 E9        30.05F
AMARILLO       MOSUNNY   90  66  45 SE16      30.16S
AUSTIN         MOSUNNY   96  69  41 E6        29.98F HX 102
BROWNSVILLE    MOSUNNY   91  75  59 SE16      29.96S HX 101
CORPUS CHRISTI MOSUNNY   92  75  57 E17       29.96F HX 103
DALLAS FTW     MOSUNNY   96  67  38 E13       30.01F HX 100
DEL RIO        SUNNY     99  65  32 E13G20    29.95F HX 102
EL PASO        TSTM      82  64  54 NE41G51   30.07R BLWGDUST
HOUSTON INT    MOSUNNY   94  74  52 N7        29.97F HX 104
LUBBOCK        PTSUNNY   81  64  56 W10       30.16F
SAN ANGELO     SUNNY     97  63  32 E14       30.03F
SAN ANTONIO    MOSUNNY   95  64  35 E8        29.99F
WACO           SUNNY     95  68  41 E8        29.99F
WICHITA FALLS  NOT AVBL
$$
...OTHER LOCATIONS IN NEW MEXICO...

CITY           SKY/WX    TMP DP  RH WIND       PRES   REMARKS
ALAMAGORDO     CLOUDY    86  48  26 E15G25    30.13F
ALBUQUERQUE    PTSUNNY   94  44  17 E21       30.22S
CANNON AFB     SUNNY     89  64  44 S10       30.21F
CLOVIS         NOT AVBL
HOLLOMAN AFB   PTSUNNY   91  48  22 SE12      30.11F
ROSWELL        MOSUNNY   96  57  27 SE10      30.11F
RUIDOSO        CLOUDY    63  59  88 MISG      30.42S THUNDER
SANTA FE       PTSUNNY   90  42  18 SE21G26   30.31F
TRUTH OR CONSE CLOUDY    95  46  18 S20       30.14S
TUCUMCARI      PTSUNNY   95  59  30 SE12      30.15F
$$

USA.gov is the U.S. government's official web portal to all federal, state and local government web resources and services.